Location: ??????
(36.0418°N, 43.6351°E)
Time: 05:17:35
(UTC+00:00)

deb Chang Zheng 4 - Pass Details

Date: 07 March 2021
Orbit: 601 x 620 km, 98.6° (Epoch: 20 April)

Event Time Altitude Azimuth Distance (km) Brightness Sun altitude
Rises 02:30:07 0° 13° (NNE) 2,883 7.2 -12.5°
Reaches altitude 10° 02:32:18 10° 14° (NNE) 1,978 6.4 -12.0°
Maximum altitude 02:36:36 87° 99° (E) 622 3.6 -11.1°
Drops below altitude 10° 02:40:55 10° 193° (SSW) 1,976 6.0 -10.3°
Sets 02:43:05 0° 194° (SSW) 2,880 6.8 -9.8°
